Time,TemperatureF,DewpointF,PressureIn,WindDirection,WindDirectionDegrees,WindSpeedMPH,WindSpeedGustMPH,Humidity,HourlyPrecipIn,Conditions,Clouds,dailyrainin,SoftwareType,DateUTC
2013-05-28 00:12:00,84.1,32.0,29.61,ENE,59,4.0,7.0,15,0.00,,,0.00,weatherlink.com 1.10,2013-05-28 07:12:00,
2013-05-28 00:28:00,83.4,33.0,29.60,ENE,74,2.0,5.0,16,0.00,,,0.00,weatherlink.com 1.10,2013-05-28 07:28:00,
2013-05-28 00:43:00,82.5,32.0,29.60,ENE,63,4.0,7.0,16,0.00,,,0.00,weatherlink.com 1.10,2013-05-28 07:43:00,
2013-05-28 00:58:00,82.2,33.0,29.60,NE,50,5.0,8.0,17,0.00,,,0.00,weatherlink.com 1.10,2013-05-28 07:58:00,
2013-05-28 01:13:00,82.7,34.0,29.60,NE,56,4.0,9.0,17,0.00,,,0.00,weatherlink.com 1.10,2013-05-28 08:13:00,
2013-05-28 01:28:00,82.1,35.0,29.59,ENE,58,4.0,7.0,18,0.00,,,0.00,weatherlink.com 1.10,2013-05-28 08:28:00,
2013-05-28 01:43:00,81.6,34.0,29.59,ENE,70,6.0,8.0,18,0.00,,,0.00,weatherlink.com 1.10,2013-05-28 08:43:00,
2013-05-28 01:58:00,81.3,34.0,29.59,East,88,3.0,5.0,18,0.00,,,0.00,weatherlink.com 1.10,2013-05-28 08:58:00,
2013-05-28 02:13:00,81.0,35.0,29.59,ENE,72,3.0,6.0,19,0.00,,,0.00,weatherlink.com 1.10,2013-05-28 09:13:00,
2013-05-28 02:28:00,80.6,35.0,29.59,East,86,3.0,5.0,19,0.00,,,0.00,weatherlink.com 1.10,2013-05-28 09:28:00,
2013-05-28 02:43:00,80.0,35.0,29.59,ENE,76,4.0,5.0,20,0.00,,,0.00,weatherlink.com 1.10,2013-05-28 09:43:00,
2013-05-28 02:58:00,79.7,35.0,29.59,ENE,70,5.0,6.0,20,0.00,,,0.00,weatherlink.com 1.10,2013-05-28 09:58:00,
2013-05-28 03:13:00,79.4,35.0,29.58,NE,51,3.0,8.0,20,0.00,,,0.00,weatherlink.com 1.10,2013-05-28 10:13:00,
2013-05-28 03:28:00,79.6,35.0,29.58,ENE,74,1.0,6.0,20,0.00,,,0.00,weatherlink.com 1.10,2013-05-28 10:28:00,
2013-05-28 03:43:00,78.7,34.0,29.59,ENE,77,3.0,6.0,20,0.00,,,0.00,weatherlink.com 1.10,2013-05-28 10:43:00,
2013-05-28 03:58:00,78.1,35.0,29.59,ENE,64,4.0,5.0,21,0.00,,,0.00,weatherlink.com 1.10,2013-05-28 10:58:00,
2013-05-28 04:13:00,77.5,35.0,29.59,ENE,76,5.0,7.0,21,0.00,,,0.00,weatherlink.com 1.10,2013-05-28 11:13:00,
2013-05-28 04:28:00,77.7,35.0,29.59,East,79,4.0,9.0,21,0.00,,,0.00,weatherlink.com 1.10,2013-05-28 11:28:00,
2013-05-28 04:43:00,77.6,35.0,29.59,East,94,1.0,5.0,21,0.00,,,0.00,weatherlink.com 1.10,2013-05-28 11:43:00,
2013-05-28 04:58:00,77.6,35.0,29.60,West,262,2.0,5.0,21,0.00,,,0.00,weatherlink.com 1.10,2013-05-28 11:58:00,
2013-05-28 05:13:00,77.5,35.0,29.59,East,101,4.0,5.0,21,0.00,,,0.00,weatherlink.com 1.10,2013-05-28 12:13:00,
2013-05-28 05:28:00,77.5,35.0,29.59,SE,126,1.0,5.0,21,0.00,,,0.00,weatherlink.com 1.10,2013-05-28 12:28:00,
2013-05-28 05:43:00,77.3,34.0,29.60,South,186,2.0,4.0,21,0.00,,,0.00,weatherlink.com 1.10,2013-05-28 12:43:00,
2013-05-28 05:58:00,77.6,35.0,29.60,East,101,0.0,5.0,21,0.00,,,0.00,weatherlink.com 1.10,2013-05-28 12:58:00,
2013-05-28 06:13:00,76.6,35.0,29.59,East,87,0.0,3.0,22,0.00,,,0.00,weatherlink.com 1.10,2013-05-28 13:13:00,
2013-05-28 06:28:00,76.6,36.0,29.60,East,89,2.0,3.0,23,0.00,,,0.00,weatherlink.com 1.10,2013-05-28 13:28:00,
2013-05-28 06:43:00,77.1,36.0,29.59,ENE,72,3.0,4.0,23,0.00,,,0.00,weatherlink.com 1.10,2013-05-28 13:43:00,
2013-05-28 06:58:00,78.5,38.0,29.59,ENE,74,5.0,6.0,23,0.00,,,0.00,weatherlink.com 1.10,2013-05-28 13:58:00,
2013-05-28 07:13:00,79.2,38.0,29.60,ENE,58,3.0,8.0,23,0.00,,,0.00,weatherlink.com 1.10,2013-05-28 14:13:00,
2013-05-28 07:28:00,79.7,38.0,29.59,East,94,6.0,10.0,22,0.00,,,0.00,weatherlink.com 1.10,2013-05-28 14:28:00,
2013-05-28 07:43:00,79.9,38.0,29.59,East,100,7.0,9.0,22,0.00,,,0.00,weatherlink.com 1.10,2013-05-28 14:43:00,
2013-05-28 07:58:00,80.5,38.0,29.59,East,81,8.0,10.0,22,0.00,,,0.00,weatherlink.com 1.10,2013-05-28 14:58:00,
2013-05-28 08:13:00,81.5,38.0,29.59,SE,130,7.0,10.0,21,0.00,,,0.00,weatherlink.com 1.10,2013-05-28 15:13:00,
2013-05-28 08:28:00,82.4,39.0,29.61,South,174,5.0,8.0,21,0.00,,,0.00,weatherlink.com 1.10,2013-05-28 15:28:00,
2013-05-28 08:43:00,83.2,38.0,29.61,ESE,113,4.0,6.0,20,0.00,,,0.00,weatherlink.com 1.10,2013-05-28 15:43:00,
2013-05-28 08:58:00,83.9,37.0,29.60,ESE,123,5.0,7.0,19,0.00,,,0.00,weatherlink.com 1.10,2013-05-28 15:58:00,
2013-05-28 09:13:00,84.6,37.0,29.60,ESE,112,7.0,10.0,18,0.00,,,0.00,weatherlink.com 1.10,2013-05-28 16:13:00,
2013-05-28 09:28:00,85.2,36.0,29.59,ESE,117,2.0,10.0,17,0.00,,,0.00,weatherlink.com 1.10,2013-05-28 16:28:00,
2013-05-28 09:43:00,86.1,35.0,29.59,East,88,9.0,12.0,16,0.00,,,0.00,weatherlink.com 1.10,2013-05-28 16:43:00,
2013-05-28 09:58:00,86.2,35.0,29.59,ESE,122,5.0,10.0,16,0.00,,,0.00,weatherlink.com 1.10,2013-05-28 16:58:00,
2013-05-28 10:13:00,86.8,35.0,29.59,SE,135,5.0,9.0,16,0.00,,,0.00,weatherlink.com 1.10,2013-05-28 17:13:00,
2013-05-28 10:28:00,86.2,36.0,29.59,ESE,103,4.0,10.0,17,0.00,,,0.00,weatherlink.com 1.10,2013-05-28 17:28:00,
2013-05-28 10:44:00,87.5,36.0,29.59,SE,129,8.0,14.0,16,0.00,,,0.00,weatherlink.com 1.10,2013-05-28 17:44:00,
2013-05-28 10:59:00,87.4,37.0,29.59,ESE,114,10.0,17.0,17,0.00,,,0.00,weatherlink.com 1.10,2013-05-28 17:59:00,
2013-05-28 11:14:00,88.4,38.0,29.58,ESE,117,4.0,15.0,17,0.00,,,0.00,weatherlink.com 1.10,2013-05-28 18:14:00,
2013-05-28 11:29:00,89.1,39.0,29.58,East,101,12.0,15.0,17,0.00,,,0.00,weatherlink.com 1.10,2013-05-28 18:29:00,
2013-05-28 11:44:00,89.3,39.0,29.57,ESE,106,13.0,18.0,17,0.00,,,0.00,weatherlink.com 1.10,2013-05-28 18:44:00,
2013-05-28 11:59:00,91.1,37.0,29.57,ESE,104,9.0,16.0,15,0.00,,,0.00,weatherlink.com 1.10,2013-05-28 18:59:00,
2013-05-28 12:14:00,91.3,38.0,29.56,SSE,152,8.0,16.0,15,0.00,,,0.00,weatherlink.com 1.10,2013-05-28 19:14:00,
2013-05-28 12:29:00,91.0,39.0,29.55,ENE,68,10.0,17.0,16,0.00,,,0.00,weatherlink.com 1.10,2013-05-28 19:29:00,
2013-05-28 12:44:00,92.7,39.0,29.55,SW,214,5.0,18.0,15,0.00,,,0.00,weatherlink.com 1.10,2013-05-28 19:44:00,
2013-05-28 12:59:00,92.2,40.0,29.54,SE,131,11.0,18.0,16,0.00,,,0.00,weatherlink.com 1.10,2013-05-28 19:59:00,
2013-05-28 13:14:00,93.7,38.0,29.53,SW,225,9.0,17.0,14,0.00,,,0.00,weatherlink.com 1.10,2013-05-28 20:14:00,
2013-05-28 13:29:00,93.1,39.0,29.54,WSW,244,14.0,17.0,15,0.00,,,0.00,weatherlink.com 1.10,2013-05-28 20:29:00,
2013-05-28 13:44:00,92.1,38.0,29.54,WSW,237,5.0,19.0,15,0.00,,,0.00,weatherlink.com 1.10,2013-05-28 20:44:00,
2013-05-28 13:59:00,92.5,39.0,29.53,WSW,253,5.0,14.0,15,0.00,,,0.00,weatherlink.com 1.10,2013-05-28 20:59:00,
2013-05-28 14:14:00,93.3,39.0,29.53,South,184,9.0,20.0,15,0.00,,,0.00,weatherlink.com 1.10,2013-05-28 21:14:00,
2013-05-28 14:29:00,93.1,39.0,29.54,SW,231,9.0,17.0,15,0.00,,,0.00,weatherlink.com 1.10,2013-05-28 21:29:00,
2013-05-28 14:44:00,93.3,39.0,29.54,WSW,257,10.0,17.0,15,0.00,,,0.00,weatherlink.com 1.10,2013-05-28 21:44:00,
2013-05-28 14:59:00,94.1,40.0,29.53,West,261,7.0,18.0,15,0.00,,,0.00,weatherlink.com 1.10,2013-05-28 21:59:00,
2013-05-28 15:14:00,94.5,40.0,29.52,West,278,7.0,18.0,15,0.00,,,0.00,weatherlink.com 1.10,2013-05-28 22:14:00,
2013-05-28 15:29:00,94.2,40.0,29.51,West,259,11.0,16.0,15,0.00,,,0.00,weatherlink.com 1.10,2013-05-28 22:29:00,
2013-05-28 15:44:00,94.3,38.0,29.51,SSW,207,10.0,15.0,14,0.00,,,0.00,weatherlink.com 1.10,2013-05-28 22:44:00,
2013-05-28 15:59:00,94.2,40.0,29.51,WSW,243,7.0,18.0,15,0.00,,,0.00,weatherlink.com 1.10,2013-05-28 22:59:00,
2013-05-28 16:14:00,94.1,40.0,29.51,WNW,287,8.0,30.0,15,0.00,,,0.00,weatherlink.com 1.10,2013-05-28 23:14:00,
2013-05-28 16:29:00,94.1,38.0,29.50,SW,229,9.0,15.0,14,0.00,,,0.00,weatherlink.com 1.10,2013-05-28 23:29:00,
2013-05-28 16:44:00,94.1,40.0,29.50,West,271,5.0,15.0,15,0.00,,,0.00,weatherlink.com 1.10,2013-05-28 23:44:00,
2013-05-28 16:59:00,94.1,40.0,29.49,SSE,161,5.0,14.0,15,0.00,,,0.00,weatherlink.com 1.10,2013-05-28 23:59:00,
2013-05-28 17:14:00,94.7,39.0,29.49,SW,229,7.0,13.0,14,0.00,,,0.00,weatherlink.com 1.10,2013-05-29 00:14:00,
2013-05-28 17:29:00,94.0,38.0,29.49,WSW,240,11.0,13.0,14,0.00,,,0.00,weatherlink.com 1.10,2013-05-29 00:29:00,
2013-05-28 17:44:00,94.3,38.0,29.48,WSW,239,8.0,13.0,14,0.00,,,0.00,weatherlink.com 1.10,2013-05-29 00:44:00,
2013-05-28 17:59:00,94.7,39.0,29.48,WSW,249,10.0,13.0,14,0.00,,,0.00,weatherlink.com 1.10,2013-05-29 00:59:00,
2013-05-28 18:15:00,94.6,38.0,29.48,SW,233,6.0,12.0,14,0.00,,,0.00,weatherlink.com 1.10,2013-05-29 01:15:00,
2013-05-28 18:29:00,94.5,38.0,29.48,West,267,6.0,11.0,14,0.00,,,0.00,weatherlink.com 1.10,2013-05-29 01:29:00,
2013-05-28 18:44:00,94.6,37.0,29.48,SW,217,8.0,10.0,13,0.00,,,0.00,weatherlink.com 1.10,2013-05-29 01:44:00,
2013-05-28 18:59:00,93.9,38.0,29.48,West,278,2.0,8.0,14,0.00,,,0.00,weatherlink.com 1.10,2013-05-29 01:59:00,
2013-05-28 19:14:00,93.7,36.0,29.48,SW,217,4.0,7.0,13,0.00,,,0.00,weatherlink.com 1.10,2013-05-29 02:14:00,
2013-05-28 19:29:00,92.5,37.0,29.48,WSW,245,3.0,5.0,14,0.00,,,0.00,weatherlink.com 1.10,2013-05-29 02:29:00,
2013-05-28 19:44:00,91.4,36.0,29.49,SW,231,1.0,3.0,14,0.00,,,0.00,weatherlink.com 1.10,2013-05-29 02:44:00,
2013-05-28 19:59:00,90.5,37.0,29.49,SW,214,3.0,3.0,15,0.00,,,0.00,weatherlink.com 1.10,2013-05-29 02:59:00,
2013-05-28 20:14:00,89.7,38.0,29.49,SSE,148,1.0,1.0,16,0.00,,,0.00,weatherlink.com 1.10,2013-05-29 03:14:00,
2013-05-28 20:29:00,89.1,37.0,29.49,SSW,212,1.0,1.0,16,0.00,,,0.00,weatherlink.com 1.10,2013-05-29 03:29:00,
2013-05-28 20:44:00,88.8,37.0,29.49,SSW,201,0.0,1.0,16,0.00,,,0.00,weatherlink.com 1.10,2013-05-29 03:44:00,
2013-05-28 20:59:00,87.7,38.0,29.49,SE,146,2.0,2.0,17,0.00,,,0.00,weatherlink.com 1.10,2013-05-29 03:59:00,
2013-05-28 21:14:00,87.4,40.0,29.50,NE,43,2.0,4.0,19,0.00,,,0.00,weatherlink.com 1.10,2013-05-29 04:14:00,
2013-05-28 21:29:00,86.9,41.0,29.50,ENE,60,3.0,7.0,20,0.00,,,0.00,weatherlink.com 1.10,2013-05-29 04:29:00,
2013-05-28 21:44:00,87.0,41.0,29.51,South,169,0.0,4.0,20,0.00,,,0.00,weatherlink.com 1.10,2013-05-29 04:44:00,
2013-05-28 21:59:00,86.6,42.0,29.51,NE,46,2.0,6.0,21,0.00,,,0.00,weatherlink.com 1.10,2013-05-29 04:59:00,
2013-05-28 22:14:00,84.8,42.0,29.52,NE,52,3.0,5.0,22,0.00,,,0.00,weatherlink.com 1.10,2013-05-29 05:14:00,
2013-05-28 22:29:00,84.7,41.0,29.52,NNE,20,3.0,4.0,21,0.00,,,0.00,weatherlink.com 1.10,2013-05-29 05:29:00,
2013-05-28 22:44:00,84.7,41.0,29.53,SSW,211,2.0,3.0,21,0.00,,,0.00,weatherlink.com 1.10,2013-05-29 05:44:00,
2013-05-28 22:59:00,83.9,40.0,29.53,NNE,18,1.0,2.0,21,0.00,,,0.00,weatherlink.com 1.10,2013-05-29 05:59:00,
2013-05-28 23:15:00,83.6,40.0,29.53,WNW,302,1.0,1.0,21,0.00,,,0.00,weatherlink.com 1.10,2013-05-29 06:15:00,
2013-05-28 23:30:00,83.4,40.0,29.53,NNW,335,2.0,4.0,21,0.00,,,0.00,weatherlink.com 1.10,2013-05-29 06:30:00,
2013-05-28 23:45:00,83.8,40.0,29.54,West,259,1.0,3.0,21,0.00,,,0.00,weatherlink.com 1.10,2013-05-29 06:45:00,